Vertical_Velocity
-1 -0 -1 -0 -0 0 -1 -0 0 -0 -0 -0 -0 1 1 0 0 0 -0 -0 0 0 0 0 -0 -0 1 -0 -0 -0 -0 -0 0 -0 -0 -1 -1 -1 0 1 0 0 -1
-0 -0 -0 -0 0 1 -0 -1 0 -0 -0 -1 -1 -0 1 0 0 0 0 0 1 1 0 0 0 -1 -1 -0 0 0 -1 -0 -1 -0 0 0 0 -0 -0 -1 -0 -0 0
0 -1 -2 -2 -0 -0 -1 -1 -0 1 -0 -0 0 -1 -0 -0 -1 -1 0 0 0 1 -0 0 -0 -1 -1 -1 -0 -0 -1 -0 -1 -2 -1 -1 -0 -0 -0 -0 -0 -0 -0
-1 -0 -2 -1 1 -0 -1 -1 -1 0 1 0 -0 -1 -0 -0 -0 -1 -0 0 -0 -0 -0 0 1 1 -1 -0 -0 -1 -1 0 0 -0 -1 -1 -0 -0 -0 -0 -0 0 0
-1 -2 -2 -2 -1 -0 0 -1 -1 -1 -0 1 -0 -0 -1 -0 -1 1 -0 -1 -0 -1 -0 -1 -1 -0 0 -0 -1 -1 -2 -1 0 0 0 -0 -1 -0 -0 -0 -1 0 1
-0 -1 -2 -2 -0 -1 0 -1 -1 -0 -1 1 -0 0 -0 0 0 1 3 1 -0 0 0 -0 -0 -0 -0 0 0 -0 -1 -1 0 -1 0 -0 -0 -0 -0 -1 -0 -0 0
-1 0 -2 -1 -0 -1 -1 -0 0 -0 -2 -1 -1 -1 -0 -1 -0 -0 -1 -2 -0 -1 -1 -0 -1 -0 5 0 -1 -1 -1 -1 -1 1 -1 1 0 -1 -1 -1 -1 -1 -0
-2 -1 -1 -1 0 -0 -0 0 0 0 -1 -1 -0 -1 -0 0 -1 0 -1 -1 0 0 1 0 0 0 5 2 0 -0 -0 -1 -1 -2 0 -0 0 1 0 -0 -1 -0 -0
-0 -1 -0 -0 -0 -0 -0 0 -0 1 0 -0 -1 -0 1 -1 -1 -1 -1 -1 -1 0 1 -2 -2 -0 1 1 4 3 1 1 0 -0 -2 1 -1 -1 -0 1 -1 -1 -1
-1 0 0 -0 -0 -0 -1 -1 -1 -0 -0 -1 -1 -0 -1 -0 0 -0 -1 -0 -0 -0 1 1 1 0 -2 -3 -1 -0 -0 0 -0 -0 -1 1 -2 -1 0 1 1 1 1
-0 0 -1 -1 -0 -0 -1 -2 -0 -0 0 -0 -1 0 0 0 -0 0 -0 -1 -1 -1 -1 -0 -0 -0 0 0 0 1 -1 0 -0 -1 -1 -0 -4 -1 -1 -1 1 1 -1
-0 0 -0 -1 -0 -1 -1 -1 -2 -1 -0 -1 -1 -1 -1 0 1 1 0 -0 -2 -1 -1 -1 -1 -0 -1 -1 1 0 1 0 -0 -0 1 1 0 -1 1 -1 2 -2 -1
0 0 -0 -1 0 -0 -1 -1 -1 -0 1 0 -0 -1 -0 1 0 -0 1 -0 1 -1 -1 -2 -2 -3 -1 -0 -1 1 1 0 0 -0 0 -0 0 0 -0 -2 0 3 1
1 0 -2 -2 -0 -1 -0 -1 -3 -1 -2 -1 -2 -1 -1 -1 -2 -1 -1 -0 -1 -0 1 1 1 1 2 0 1 1 0 0 0 -0 -1 0 0 1 1 2 0 2 4
-2 0 -1 -1 -1 -0 1 -1 -2 -1 -1 -1 -2 -3 -1 -2 -2 -2 -2 -2 -2 -1 -2 -1 -1 -1 1 1 0 -0 1 1 1 0 1 1 1 1 1 1 -1 -3 -1
1 -2 -0 -1 -0 -1 -0 -1 -2 -1 -2 -1 -2 -2 -2 -1 -0 -1 0 -1 -1 -1 -1 -0 -1 -0 -0 -1 0 -1 -0 -0 0 -0 0 1 -0 -1 -1 -0 0 0 -1
-1 -0 -2 -1 -2 0 0 -0 0 0 -1 -2 -2 -1 -0 -0 -0 -1 -1 -1 -0 -3 -1 -1 -0 -1 1 1 0 -1 -1 -1 0 -1 -2 0 -0 -1 -1 -1 -1 1 2
1 -0 0 -1 -1 -0 -1 -2 -2 -2 -2 -2 -2 -1 -1 -1 -2 -2 -1 -2 -1 -2 -1 -0 -0 -0 1 -0 1 -1 -1 0 -1 -1 -0 0 1 1 1 1 1 2 2
0 0 -1 -1 -0 -1 -1 -1 -0 -2 -2 -1 -0 -0 -1 -1 -1 -1 -0 -2 -1 -2 -1 0 -2 2 0 0 0 -1 -0 -0 -1 0 -0 1 -0 -2 -1 -1 -1 -0 -0
0 1 -0 -1 -1 -1 -2 -1 -2 -1 -1 -1 -1 0 1 1 0 -1 0 -2 -1 -1 -1 -1 -0 -1 1 0 0 -0 -1 -2 -0 -1 -1 -0 1 -1 0 -0 -0 1 -2
2 1 -1 0 -1 -1 -0 -1 -1 -3 -2 -1 -1 -2 -4 -4 -2 -3 -1 -2 -2 -1 0 1 0 -1 -1 -2 -1 -0 -2 0 2 0 -1 -2 -2 1 0 -0 -0 -2 1
0 0 1 -0 1 2 -0 -1 -1 0 1 0 -1 -2 -0 -2 -2 -1 -1 -1 -1 -0 -1 -1 -0 1 -1 -2 -1 -2 3 -2 -0 -1 -1 -1 -2 -1 -1 -0 -0 0 -0
2 -0 -1 1 1 -0 0 -0 0 -0 1 1 -1 -2 -1 -2 -2 -1 -2 -2 -1 -0 -1 -1 -0 -0 1 -4 -2 -3 -0 2 1 -1 -0 -1 -2 -0 0 1 -1 -1 -2
-0 1 1 1 0 0 1 -1 1 -1 -2 0 -1 -1 -0 0 0 0 -1 -1 1 -0 -0 -1 1 -1 -0 -0 -2 -2 -1 -0 -1 5 2 2 -2 -0 -1 -1 -0 -1 -1
0 1 2 2 1 1 -0 -0 -1 -2 -3 0 -1 1 -0 -1 1 -1 -1 -1 -1 -1 1 0 -1 -1 0 -0 -2 -2 1 -0 0 -2 6 4 -1 -1 -1 -0 -1 -2 -0
0 1 2 1 -0 -1 -1 -1 -2 -1 -2 -1 -1 -0 0 -1 -0 -0 -0 -1 -1 1 2 3 1 -1 -1 -0 -1 -3 -1 0 1 1 -0 1 2 -0 -2 -1 -1 -1 -1
Height
3179 3180 3180 3181 3181 3182 3183 3183 3183 3183 3183 3182 3182 3181 3181 3180 3180 3179 3179 3178 3177 3177 3176 3175 3175 3174 3173 3172 3171 3170 3169 3168 3167 3166 3166 3166 3166 3165 3165 3165 3165 3165 3165
3178 3180 3180 3181 3181 3182 3182 3182 3183 3183 3183 3182 3182 3181 3181 3180 3180 3179 3179 3178 3177 3176 3176 3175 3175 3174 3173 3172 3171 3170 3169 3168 3167 3166 3165 3165 3165 3164 3164 3164 3164 3164 3164
3179 3180 3181 3181 3181 3182 3182 3182 3182 3182 3182 3182 3182 3181 3181 3180 3179 3179 3178 3178 3177 3176 3175 3174 3174 3173 3172 3172 3171 3170 3169 3168 3167 3166 3165 3164 3164 3163 3163 3163 3162 3162 3162
3180 3180 3180 3181 3181 3182 3182 3182 3182 3182 3181 3181 3181 3180 3180 3179 3179 3178 3178 3177 3176 3175 3174 3173 3173 3172 3171 3170 3170 3169 3168 3167 3167 3166 3165 3164 3163 3162 3162 3161 3161 3161 3161
3180 3180 3180 3180 3181 3181 3181 3181 3181 3181 3180 3180 3179 3179 3178 3178 3178 3177 3176 3176 3175 3174 3173 3172 3172 3171 3170 3169 3169 3168 3167 3166 3166 3165 3164 3163 3162 3161 3160 3160 3159 3159 3158
3180 3180 3180 3180 3180 3181 3181 3181 3180 3180 3179 3179 3178 3178 3177 3176 3176 3175 3174 3173 3173 3172 3171 3170 3170 3169 3168 3168 3167 3166 3165 3165 3164 3164 3163 3162 3161 3160 3159 3158 3157 3156 3156
3180 3180 3180 3180 3180 3180 3179 3179 3179 3178 3178 3177 3177 3176 3176 3175 3174 3174 3172 3171 3170 3170 3169 3168 3167 3167 3166 3165 3165 3164 3163 3162 3162 3161 3161 3160 3159 3158 3157 3156 3156 3155 3154
3179 3179 3179 3179 3179 3179 3178 3178 3177 3176 3176 3175 3175 3174 3173 3172 3172 3171 3169 3168 3167 3167 3166 3165 3164 3164 3163 3162 3161 3161 3160 3159 3158 3157 3156 3156 3156 3155 3154 3153 3153 3152 3151
3178 3178 3178 3178 3177 3177 3176 3175 3175 3174 3173 3173 3172 3171 3171 3170 3169 3168 3167 3166 3164 3163 3163 3162 3161 3161 3159 3158 3157 3157 3156 3155 3154 3153 3152 3151 3151 3151 3150 3150 3149 3149 3148
3178 3178 3178 3177 3176 3175 3174 3173 3173 3172 3171 3170 3169 3168 3168 3167 3166 3165 3164 3162 3161 3160 3159 3158 3157 3156 3155 3153 3153 3152 3151 3149 3149 3148 3148 3147 3146 3145 3145 3145 3145 3145 3144
3176 3176 3176 3175 3174 3173 3172 3172 3171 3170 3169 3168 3167 3166 3165 3164 3162 3161 3160 3158 3157 3156 3155 3154 3152 3151 3150 3148 3147 3146 3145 3145 3144 3143 3143 3143 3141 3141 3141 3140 3140 3139 3139
3174 3174 3174 3173 3172 3172 3171 3170 3169 3167 3166 3166 3164 3163 3162 3160 3159 3157 3155 3153 3152 3150 3149 3148 3147 3145 3144 3143 3142 3140 3140 3139 3138 3137 3137 3137 3136 3136 3136 3135 3134 3133 3133
3172 3172 3171 3171 3170 3169 3168 3167 3167 3165 3164 3163 3161 3160 3159 3157 3155 3152 3150 3148 3146 3144 3143 3141 3140 3138 3137 3135 3135 3134 3133 3131 3131 3130 3130 3130 3129 3130 3130 3129 3128 3127 3126
3170 3169 3169 3168 3166 3166 3165 3164 3163 3162 3161 3159 3158 3156 3155 3153 3151 3148 3145 3142 3140 3137 3135 3133 3132 3130 3129 3127 3126 3126 3125 3124 3124 3123 3123 3123 3122 3122 3121 3121 3121 3120 3119
3168 3167 3166 3165 3164 3163 3162 3161 3160 3158 3157 3156 3154 3152 3150 3148 3145 3142 3139 3136 3133 3131 3128 3126 3124 3122 3121 3119 3118 3116 3117 3116 3115 3115 3115 3115 3114 3113 3112 3112 3113 3112 3112
3165 3163 3162 3162 3161 3160 3159 3158 3156 3155 3154 3152 3149 3146 3144 3141 3139 3136 3134 3131 3128 3124 3122 3120 3117 3115 3113 3111 3110 3108 3108 3107 3107 3106 3106 3106 3105 3104 3104 3103 3103 3103 3103
3161 3160 3159 3158 3157 3156 3155 3154 3153 3151 3149 3147 3144 3141 3139 3136 3133 3131 3128 3125 3122 3119 3116 3113 3110 3107 3105 3103 3102 3102 3100 3100 3099 3098 3097 3096 3096 3095 3094 3093 3093 3093 3093
3158 3157 3156 3155 3154 3153 3152 3151 3149 3147 3145 3143 3140 3137 3134 3131 3129 3126 3123 3120 3116 3113 3109 3106 3102 3100 3097 3096 3095 3095 3094 3093 3092 3091 3089 3088 3087 3086 3086 3085 3085 3084 3084
3154 3154 3152 3151 3150 3149 3148 3146 3145 3143 3140 3137 3135 3133 3131 3128 3124 3121 3117 3113 3110 3106 3102 3099 3096 3094 3091 3090 3090 3089 3087 3087 3086 3085 3083 3082 3081 3080 3080 3080 3079 3077 3075
3151 3150 3148 3147 3146 3145 3144 3142 3140 3138 3136 3134 3131 3129 3126 3122 3118 3115 3111 3107 3104 3101 3097 3094 3091 3087 3085 3085 3085 3084 3083 3082 3081 3080 3078 3077 3076 3075 3075 3073 3072 3070 3067
3147 3146 3145 3143 3142 3141 3139 3137 3135 3134 3131 3129 3127 3125 3122 3118 3114 3110 3106 3102 3099 3095 3091 3088 3086 3083 3080 3081 3081 3080 3079 3078 3076 3075 3074 3073 3072 3071 3070 3067 3065 3062 3060
3142 3141 3140 3139 3138 3136 3135 3133 3132 3130 3128 3125 3122 3119 3116 3113 3109 3105 3101 3098 3094 3090 3085 3083 3081 3079 3077 3077 3077 3077 3075 3074 3072 3071 3070 3068 3066 3066 3065 3062 3058 3055 3053
3137 3137 3136 3135 3133 3131 3130 3129 3127 3125 3123 3121 3117 3114 3110 3107 3103 3100 3097 3094 3090 3086 3082 3079 3077 3076 3075 3073 3073 3074 3071 3069 3069 3067 3066 3064 3061 3061 3059 3056 3054 3052 3049
3133 3132 3131 3129 3128 3126 3125 3124 3122 3121 3120 3117 3113 3109 3106 3102 3100 3096 3093 3091 3087 3083 3079 3077 3074 3073 3071 3070 3070 3069 3066 3064 3064 3066 3064 3062 3058 3057 3055 3052 3050 3048 3046
3128 3127 3126 3125 3124 3123 3122 3120 3119 3117 3114 3112 3107 3104 3101 3098 3095 3092 3090 3088 3086 3082 3078 3075 3072 3070 3068 3068 3067 3067 3064 3061 3059 3057 3059 3059 3055 3052 3050 3047 3046 3044 3042
3123 3122 3121 3120 3119 3118 3117 3115 3114 3112 3110 3107 3103 3099 3096 3093 3090 3087 3086 3084 3083 3081 3078 3075 3071 3069 3068 3067 3065 3065 3063 3061 3058 3055 3052 3052 3051 3049 3047 3045 3042 3040 3038